Home   Weather   Birmingham   Past weeks
Flag for United Kingdom

Past Weather in Birmingham, England, United Kingdom — Yesterday and Last 2 Weeks

Now
64 °F

Clear.


Feels Like: 64 °F
Forecast: 68 / 57 °F
Wind: 3 mph from South

Location: Birmingham / Airport

Current Time: Jul 17, 2019 at 9:45:44 pm

Latest Report: Jul 17, 2019 at 9:20 pm


Visibility: 10 mi

Pressure: 29.86 "Hg

Humidity: 73%

Dew Point: 55 °F

Location of BirminghamLocation

Past Weather in Birmingham — Graph

°F

Birmingham Temperature Yesterday

Maximum temperature yesterday: 75 °F (at 2:50 pm)
Minimum temperature yesterday: 52 °F (at 4:20 am)
Average temperature yesterday: 65 °F

High & Low Weather Summary for the Past Weeks

 TemperatureHumidityPressure
High77 °F (Jul 4, 5:20 pm)100% (Jul 11, 9:50 pm)30.36 "Hg (Jul 11, 9:50 pm)
Low48 °F (Jul 15, 4:20 am)34% (Jul 5, 3:20 pm)29.86 "Hg (Jul 17, 5:20 pm)
Average63 °F71%30.11 "Hg
* Reported Jul 2 8:20 pm — Jul 17 8:20 pm, Birmingham. Weather by CustomWeather, © 2019

Note: Actual official high and low records may vary slightly from our data, if they occured in-between our weather recording intervals... More about our weather records

Advertising

Birmingham Weather History for the Previous 24 Hours

Scroll right to see more
 ConditionsComfort  
Time TempWeatherWind HumidityBarometerVisibility
8:20 pm
Wed, Jul 17
66 °FSunny.3 mph68%29.86 "Hg10 mi
7:50 pm66 °FSunny.6 mph68%29.86 "Hg10 mi
7:20 pm66 °FLight rain. Clear.8 mph68%29.86 "HgN/A
6:50 pm68 °FScattered clouds.10 mph60%29.86 "HgN/A
6:20 pm70 °FLight rain. Passing clouds.8 mph53%29.86 "HgN/A
5:50 pm72 °FPassing clouds.9 mph50%29.86 "HgN/A
5:20 pm72 °FScattered clouds.10 mph50%29.86 "HgN/A
4:50 pm73 °FScattered clouds.8 mph47%29.89 "HgN/A
4:20 pm72 °FScattered clouds.9 mph53%29.89 "HgN/A
3:50 pm72 °FScattered clouds.9 mph53%29.89 "HgN/A
3:20 pm72 °FScattered clouds.8 mph53%29.92 "HgN/A
2:50 pm72 °FScattered clouds.8 mph53%29.92 "HgN/A
2:20 pm72 °FScattered clouds.9 mph53%29.92 "HgN/A
1:50 pm72 °FScattered clouds.9 mph53%29.92 "HgN/A
1:20 pm72 °FScattered clouds.8 mph53%29.92 "HgN/A
12:50 pm72 °FScattered clouds.7 mph57%29.95 "HgN/A
12:20 pm72 °FPassing clouds.8 mph57%29.95 "HgN/A
11:50 am72 °FPassing clouds.8 mph57%29.95 "HgN/A
11:20 am70 °FPassing clouds.8 mph60%29.95 "HgN/A
10:50 am72 °FPassing clouds.6 mph57%29.95 "HgN/A
10:20 am70 °FPassing clouds.8 mph60%29.95 "HgN/A
9:50 am70 °FPassing clouds.5 mph60%29.95 "HgN/A
9:20 am68 °FSunny.3 mph64%29.98 "Hg10 mi
8:50 am68 °FSunny.2 mph64%29.98 "Hg10 mi
8:20 am64 °FPassing clouds.5 mph73%29.98 "HgN/A
7:50 am64 °FSunny.3 mph73%29.98 "Hg10 mi
7:20 am63 °FSunny.3 mph77%29.98 "Hg10 mi
6:50 am61 °FSunny.1 mph88%29.98 "Hg10 mi
6:20 am57 °FSunny.1 mph94%29.98 "Hg10 mi
5:50 am57 °FSunny.No wind94%29.98 "Hg10 mi
5:20 am57 °FSunny.2 mph94%29.98 "Hg10 mi
4:50 am55 °FClear.2 mph100%29.98 "HgN/A
4:20 am55 °FClear.1 mph94%29.98 "Hg10 mi
3:50 am57 °FClear.5 mph88%30.01 "Hg10 mi
3:20 am55 °FClear.2 mph94%30.01 "Hg10 mi
2:50 am55 °FClear.3 mph94%30.01 "Hg10 mi
2:20 am55 °FClear.1 mph94%30.01 "Hg10 mi
1:50 am57 °FClear.1 mph88%30.01 "Hg10 mi
1:20 am59 °FClear.No wind82%30.04 "Hg10 mi
12:50 am61 °FClear.2 mph83%30.04 "Hg10 mi
12:20 am59 °FClear.2 mph88%30.04 "Hg10 mi
11:50 pm
Tue, Jul 16
59 °FClear.1 mph88%30.04 "Hg10 mi
11:20 pm63 °FClear.2 mph77%30.04 "Hg10 mi
10:50 pm63 °FClear.1 mph77%30.04 "Hg10 mi
10:20 pm68 °FClear.1 mph64%30.04 "Hg10 mi
9:50 pm70 °FClear.2 mph57%30.04 "Hg10 mi
9:20 pm70 °FSunny.3 mph57%30.04 "Hg10 mi
Weather by CustomWeather, © 2019

See weather overview